UAE89Y LIPE-OMDB

Flight info

Callsign UAE89Y
Flight time N/A
Altitude 39000
Route PELEG DCT ESODU DCT LUXIL DCT LATAN UM872 PLH UL604 SALUN N705 MMA P751 DASUM Y234 FYM M872 LUBOS/N0484F410 M872 EVANO J852 BOVET DCT MEDRO J852 BDB Y214 RAPMA DCT KUVSO DCT KATIT DCT PEKEM M628 RIGIL G783 ELUDA/N0504F350 G783 ASPED Q308 KIPOK Q568 IMPED
Aircraft A359/H-SDE2E3GHIJ3J4J5LM1ORWXY/LB1D1

Departure

Time 2026-05-07 15:30
Airport Bologna Guglielmo Marconi Airport (LIPE)

Arrival

Time N/A
Airport Dubai International Airport (OMDB)
Time Latitude Longitude Altitude Speed Heading
2026-05-07 15:07 44.53392 11.28296 137 ft 0 kts 207°
2026-05-07 15:22 44.53393 11.28297 137 ft 2 kts 207°
2026-05-07 15:22 44.53415 11.28314 137 ft 4 kts 214°
2026-05-07 15:23 44.53437 11.28337 137 ft 4 kts 223°
2026-05-07 15:23 44.53454 11.28365 136 ft 4 kts 240°
2026-05-07 15:23 44.53463 11.28398 136 ft 4 kts 278°
2026-05-07 15:23 44.53459 11.28415 136 ft 1 kts 296°
2026-05-07 15:24 44.53459 11.28416 136 ft 0 kts 296°
2026-05-07 15:26 44.53481 11.28351 136 ft 11 kts 296°
2026-05-07 15:26 44.53536 11.28301 136 ft 9 kts 330°
2026-05-07 15:26 44.53577 11.28224 136 ft 11 kts 297°
2026-05-07 15:27 44.53615 11.28121 136 ft 13 kts 296°
2026-05-07 15:27 44.53656 11.28004 136 ft 14 kts 296°
2026-05-07 15:27 44.53703 11.27870 136 ft 16 kts 296°
2026-05-07 15:27 44.53756 11.27725 136 ft 18 kts 297°
2026-05-07 15:28 44.53814 11.27565 136 ft 19 kts 297°
2026-05-07 15:28 44.53877 11.27393 136 ft 20 kts 297°
2026-05-07 15:28 44.53984 11.27264 136 ft 21 kts 327°
2026-05-07 15:28 44.54086 11.27232 136 ft 15 kts 32°
2026-05-07 15:29 44.54088 11.27351 136 ft 12 kts 115°
2026-05-07 15:29 44.53991 11.27632 133 ft 66 kts 117°
2026-05-07 15:29 44.53671 11.28515 135 ft 134 kts 117°
2026-05-07 15:29 44.53201 11.29876 412 ft 163 kts 114°
2026-05-07 15:30 44.53032 11.31382 1176 ft 155 kts 72°
2026-05-07 15:30 44.53756 11.32534 1690 ft 177 kts 24°
2026-05-07 15:30 44.54988 11.33090 2212 ft 195 kts 20°
2026-05-07 15:30 44.56240 11.33861 2832 ft 198 kts 29°
2026-05-07 15:31 44.57445 11.34829 3399 ft 203 kts 33°
2026-05-07 15:31 44.58650 11.35917 4024 ft 206 kts 35°
2026-05-07 15:31 44.59827 11.37091 4573 ft 213 kts 40°
2026-05-07 15:31 44.60703 11.38777 5028 ft 218 kts 72°
2026-05-07 15:32 44.60769 11.40879 5590 ft 218 kts 107°
2026-05-07 15:32 44.60005 11.42705 5993 ft 229 kts 139°
2026-05-07 15:32 44.58546 11.43720 6338 ft 241 kts 168°
2026-05-07 15:32 44.56884 11.44206 6970 ft 246 kts 171°
2026-05-07 15:33 44.55177 11.44665 7664 ft 251 kts 171°
2026-05-07 15:33 44.53445 11.45012 8320 ft 259 kts 176°
2026-05-07 15:33 44.51592 11.45269 8811 ft 274 kts 176°
2026-05-07 15:33 44.49665 11.45523 9543 ft 280 kts 176°
2026-05-07 15:34 44.47707 11.45789 10295 ft 285 kts 177°
2026-05-07 15:34 44.45713 11.46064 11027 ft 289 kts 177°
2026-05-07 15:34 44.43721 11.46341 11754 ft 293 kts 177°
2026-05-07 15:34 44.41666 11.46627 12442 ft 300 kts 177°
2026-05-07 15:35 44.39525 11.46924 12821 ft 318 kts 177°
2026-05-07 15:35 44.37274 11.47236 13188 ft 335 kts 177°
2026-05-07 15:35 44.34895 11.47568 13545 ft 351 kts 177°
2026-05-07 15:35 44.32415 11.47996 13879 ft 368 kts 172°
2026-05-07 15:36 44.29974 11.49153 14296 ft 383 kts 155°
2026-05-07 15:36 44.27802 11.51432 14806 ft 396 kts 135°
2026-05-07 15:36 44.26265 11.54643 15355 ft 405 kts 115°
2026-05-07 15:36 44.25499 11.58439 15963 ft 411 kts 102°
2026-05-07 15:37 44.24865 11.62354 16519 ft 415 kts 105°
2026-05-07 15:37 44.24147 11.66275 17111 ft 419 kts 105°
2026-05-07 15:37 44.23331 11.70212 17683 ft 424 kts 110°
2026-05-07 15:37 44.22089 11.73951 18262 ft 427 kts 123°
2026-05-07 15:38 44.20374 11.77287 18786 ft 428 kts 131°
2026-05-07 15:38 44.18437 11.80453 19333 ft 432 kts 135°
2026-05-07 15:38 44.16393 11.83552 19893 ft 435 kts 136°
2026-05-07 15:38 44.14297 11.86638 20495 ft 439 kts 137°
2026-05-07 15:39 44.12181 11.89742 21042 ft 443 kts 137°
2026-05-07 15:39 44.10057 11.92880 21667 ft 446 kts 137°
2026-05-07 15:39 44.07960 11.96005 22262 ft 450 kts 137°
2026-05-07 15:39 44.05828 11.99205 22833 ft 453 kts 137°
2026-05-07 15:40 44.03680 12.02440 23347 ft 458 kts 137°
2026-05-07 15:40 44.01509 12.05711 23837 ft 462 kts 137°
2026-05-07 15:40 43.99325 12.09001 24316 ft 465 kts 138°
2026-05-07 15:40 43.97120 12.12320 24785 ft 469 kts 138°
2026-05-07 15:41 43.94896 12.15661 25229 ft 473 kts 138°
2026-05-07 15:41 43.92652 12.19027 25706 ft 476 kts 138°
2026-05-07 15:41 43.90397 12.22407 26158 ft 480 kts 138°
2026-05-07 15:41 43.88121 12.25812 26617 ft 483 kts 138°
2026-05-07 15:42 43.85829 12.29241 27113 ft 485 kts 138°
2026-05-07 15:42 43.83546 12.32647 27492 ft 491 kts 138°
2026-05-07 15:42 43.81214 12.36121 27904 ft 495 kts 138°
2026-05-07 15:42 43.78853 12.39635 28336 ft 498 kts 139°
2026-05-07 15:43 43.76490 12.43148 28770 ft 501 kts 139°
2026-05-07 15:43 43.74111 12.46683 29223 ft 504 kts 139°
2026-05-07 15:43 43.71705 12.50250 29506 ft 509 kts 139°
2026-05-07 15:43 43.69269 12.53858 29814 ft 513 kts 139°
2026-05-07 15:44 43.66858 12.57426 30170 ft 516 kts 139°
2026-05-07 15:44 43.64395 12.61066 30495 ft 518 kts 139°
2026-05-07 15:44 43.61924 12.64714 30828 ft 520 kts 139°
2026-05-07 15:44 43.59443 12.68373 31147 ft 523 kts 139°
2026-05-07 15:45 43.56957 12.72034 31475 ft 524 kts 139°
2026-05-07 15:45 43.54460 12.75709 31873 ft 523 kts 139°
2026-05-07 15:45 43.51977 12.79359 32344 ft 521 kts 140°
2026-05-07 15:45 43.49536 12.82945 32802 ft 518 kts 140°
2026-05-07 15:46 43.44602 12.90166 33521 ft 517 kts 140°
2026-05-07 15:46 43.42135 12.93770 33976 ft 515 kts 140°
2026-05-07 15:46 43.39672 12.97364 34350 ft 513 kts 140°
2026-05-07 15:47 43.37223 13.00930 34703 ft 513 kts 140°
2026-05-07 15:47 43.34770 13.04499 34978 ft 513 kts 140°
2026-05-07 15:47 43.32348 13.08020 35297 ft 513 kts 140°
2026-05-07 15:47 43.29894 13.11584 35578 ft 513 kts 140°
2026-05-07 15:48 43.27440 13.15142 35819 ft 513 kts 140°
2026-05-07 15:48 43.24981 13.18701 35984 ft 514 kts 140°
2026-05-07 15:48 43.22514 13.22265 36151 ft 516 kts 140°
2026-05-07 15:48 43.20042 13.25834 36367 ft 516 kts 140°
2026-05-07 15:49 43.17597 13.29360 36623 ft 515 kts 140°
2026-05-07 15:49 43.15120 13.32930 36867 ft 515 kts 140°
2026-05-07 15:49 43.12653 13.36480 37088 ft 515 kts 140°
2026-05-07 15:49 43.10177 13.40038 37293 ft 515 kts 140°
2026-05-07 15:50 43.07702 13.43590 37479 ft 515 kts 140°
2026-05-07 15:50 43.05254 13.47098 37724 ft 514 kts 140°
2026-05-07 15:50 43.02769 13.50656 37875 ft 514 kts 140°
2026-05-07 15:51 42.97777 13.57781 38019 ft 519 kts 141°
2026-05-07 15:51 42.95317 13.61291 38235 ft 519 kts 140°
2026-05-07 15:51 42.92821 13.64851 38454 ft 518 kts 140°
2026-05-07 15:51 42.90327 13.68403 38630 ft 518 kts 141°
2026-05-07 15:52 42.87826 13.71959 38790 ft 517 kts 141°
2026-05-07 15:52 42.85335 13.75494 38922 ft 517 kts 140°
2026-05-07 15:52 42.82833 13.79038 38991 ft 519 kts 140°
2026-05-07 15:53 42.77832 13.86110 38953 ft 520 kts 141°
2026-05-07 15:53 42.72794 13.93219 38996 ft 522 kts 141°
2026-05-07 15:54 42.67775 14.00285 38992 ft 522 kts 141°
2026-05-07 15:54 42.62713 14.07394 38994 ft 522 kts 141°
2026-05-07 15:55 42.57672 14.14457 38994 ft 522 kts 141°
2026-05-07 15:55 42.52614 14.21526 38983 ft 523 kts 142°
2026-05-07 15:56 42.47521 14.28619 38994 ft 527 kts 142°
2026-05-07 15:56 42.42406 14.35796 38992 ft 531 kts 139°
2026-05-07 15:57 42.37666 14.43456 38991 ft 535 kts 135°
2026-05-07 15:57 42.33007 14.51328 38989 ft 535 kts 136°
2026-05-07 15:58 42.28323 14.59069 38971 ft 534 kts 137°
2026-05-07 15:58 42.23533 14.66827 38989 ft 540 kts 138°
2026-05-07 15:59 42.18710 14.74585 38987 ft 542 kts 138°
2026-05-07 15:59 42.13855 14.82390 38988 ft 541 kts 138°
2026-05-07 16:00 42.09005 14.90169 38988 ft 541 kts 138°
2026-05-07 16:00 42.04174 14.97896 38995 ft 542 kts 138°
2026-05-07 16:01 41.99302 15.05666 38984 ft 546 kts 139°
2026-05-07 16:01 41.94365 15.13508 38988 ft 552 kts 139°
2026-05-07 16:02 41.89426 15.21348 38985 ft 553 kts 139°
2026-05-07 16:02 41.84447 15.29240 38970 ft 553 kts 139°
2026-05-07 16:03 41.79459 15.37119 38981 ft 552 kts 139°
2026-05-07 16:03 41.74518 15.44898 38985 ft 552 kts 139°
2026-05-07 16:04 41.70359 15.51429 38986 ft 552 kts 139°
2026-05-07 16:04 41.65378 15.59233 38989 ft 552 kts 139°
2026-05-07 16:05 41.60377 15.67048 38978 ft 552 kts 139°
2026-05-07 16:05 41.55390 15.74817 38994 ft 555 kts 139°
2026-05-07 16:06 41.50357 15.82646 38975 ft 555 kts 139°
2026-05-07 16:06 41.45290 15.90499 38974 ft 559 kts 140°
2026-05-07 16:07 41.40226 15.98331 38973 ft 560 kts 140°
2026-05-07 16:07 41.35122 16.06207 38973 ft 561 kts 140°
2026-05-07 16:08 41.30035 16.14034 38980 ft 562 kts 140°
2026-05-07 16:08 41.24908 16.21903 38951 ft 562 kts 140°
2026-05-07 16:09 41.19808 16.29708 38991 ft 563 kts 140°
2026-05-07 16:09 41.14663 16.37564 39014 ft 563 kts 140°
2026-05-07 16:10 41.09513 16.45406 39023 ft 564 kts 140°
2026-05-07 16:10 41.04349 16.53248 39029 ft 564 kts 140°
2026-05-07 16:11 40.99182 16.61076 39012 ft 564 kts 140°
2026-05-07 16:11 40.94039 16.68847 39012 ft 562 kts 140°
2026-05-07 16:12 40.88881 16.76621 38997 ft 562 kts 140°
2026-05-07 16:12 40.83746 16.84337 39005 ft 562 kts 140°
2026-05-07 16:13 40.78547 16.92067 39015 ft 561 kts 141°
2026-05-07 16:13 40.73267 16.99647 39020 ft 560 kts 142°
2026-05-07 16:14 40.67980 17.07185 39012 ft 559 kts 141°
2026-05-07 16:14 40.62737 17.14682 39019 ft 560 kts 141°
2026-05-07 16:15 40.57454 17.22238 39020 ft 560 kts 141°
2026-05-07 16:15 40.52168 17.29784 39019 ft 560 kts 141°
2026-05-07 16:16 40.46886 17.37305 39021 ft 560 kts 141°
2026-05-07 16:16 40.41619 17.44786 39021 ft 560 kts 141°
2026-05-07 16:17 40.36336 17.52272 39020 ft 558 kts 141°
2026-05-07 16:17 40.31086 17.59689 39020 ft 558 kts 141°
2026-05-07 16:18 40.25790 17.67152 39023 ft 558 kts 141°
2026-05-07 16:18 40.20502 17.74588 39020 ft 558 kts 141°
2026-05-07 16:19 40.15202 17.82018 39014 ft 560 kts 141°
2026-05-07 16:19 40.09926 17.89404 39022 ft 557 kts 141°
2026-05-07 16:20 40.04626 17.96806 39022 ft 557 kts 141°
2026-05-07 16:20 39.99317 18.04196 39026 ft 557 kts 141°
2026-05-07 16:21 39.94013 18.11562 39025 ft 557 kts 141°
2026-05-07 16:21 39.91398 18.15189 39026 ft 557 kts 141°